{"data":{"norad_id":67665,"epoch":"2026-05-25T01:34:21.942336Z","epoch_age_seconds":63189,"freshness":"FRESH","line1":"1 67665U 26022T   26145.06553174  .00017196  00000+0  53340-3 0  9992","line2":"2 67665  97.2841 178.2650 0001463  99.1529 260.9879 15.33466294 17272","mean_motion":15.33466294,"eccentricity":0.0001463,"inclination_deg":97.2841,"raan_deg":178.265,"arg_perigee_deg":99.1529,"mean_anomaly_deg":260.9879,"bstar":0.0005334,"rev_number":1727,"period_min":93.904900657699,"perigee_km":464.47859810822,"apogee_km":466.48104038954,"semimajor_km":6843.6168192489,"source":"CELESTRAK","updated_at":"2026-05-25T13:38:21.660411Z"}}